Preview of NWS' New Version of Forecast
This preview is not operational and should not be used for support decisions.

Regional Weather Roundup (RWR)

Issued by National Weather Service (NWS)

                            
000
ASUS43 KBIS 200910
RWRND 

NORTH DAKOTA REGIONAL WEATHER ROUNDUP
NATIONAL WEATHER SERVICE BISMARCK ND
400 AM CDT SAT APR 20 2019

NOTE: "FAIR" INDICATES FEW OR NO CLOUDS BELOW 12,000 FEET WITH NO
SIGNIFICANT WEATHER AND/OR OBSTRUCTIONS TO VISIBILITY.


NDZ001>003-009>011-017-201000-
NORTHWEST NORTH DAKOTA
  
CITY           SKY/WX    TMP DP  RH WIND       PRES   REMARKS
WILLISTON      CLOUDY    53  42  66 N9        29.67R                  
MINOT          CLOUDY    51  42  71 NW12      29.61R                  
MINOT AFB      CLOUDY    50  43  77 NW8         N/A                   
$$
 
NDZ018>021-031>035-040>046-201000-
SOUTHWEST NORTH DAKOTA
  
CITY           SKY/WX    TMP DP  RH WIND       PRES   REMARKS
BISMARCK       CLEAR     45  40  82 W6        29.66R                  
DICKINSON      CLOUDY    59  44  57 W5        29.63F                  
GARRISON         N/A     52  41  66 NW9       29.61R                  
HETTINGER ARPT PTCLDY    47  39  74 CALM      29.71R                  
$$
 
NDZ004>008-012>016-024-026-027-054-201000-
NORTHEAST NORTH DAKOTA
  
CITY           SKY/WX    TMP DP  RH WIND       PRES   REMARKS
GRAND FORKS    MOCLDY    46  40  79 S6        29.61F                  
GRND FRKS AFB  MOCLDY    47  43  84 S6        29.61F                  
DEVILS LAKE    PTCLDY    44  42  93 NE5       29.61R                  
$$
 
NDZ022-023-025-028>030-036>039-047>053-201000-
SOUTHEAST NORTH DAKOTA
  
CITY           SKY/WX    TMP DP  RH WIND       PRES   REMARKS
FARGO          PTCLDY    47  41  80 S14       29.67F                  
JAMESTOWN      PTCLDY    47  41  80 S7        29.61F                  
$$